Regional Weather Roundup
Issued by NWS

Home | Current Version | Previous Version | Text Only | Print | Product List | Glossary On
Versions: 1 2 3 4 5 6 7 8 9 10 11 12 13 14 15 16 17 18 19 20 21 22 23 24 25 26 27
000
ASUS42 KKEY 230410
RWRKEY

FLORIDA REGIONAL WEATHER ROUNDUP FOR THE FLORIDA KEYS
NATIONAL WEATHER SERVICE KEY WEST FLORIDA
1200 AM EDT SAT SEP 23 2017

...SOUTH FLORIDA AND THE KEYS...

CITY           SKY/WX    TMP DP  RH WIND       PRES   REMARKS
FORT MYERS     PTCLDY    78  76  93 NE7       29.88R
SW REGIONAL AP CLEAR     77  74  90 E7        29.88R
NAPLES         CLEAR     76  73  91 NE8       29.87R
MIAMI          CLOUDY    80  78  94 N6        29.86F
WEST KENDALL   CLOUDY    78  74  87 E5        29.85F
HOMESTEAD      CLOUDY    79  77  94 E9        29.86R
MARATHON       LGT RAIN  81  74  79 NE13      29.85S
BOCA CHICA NAS PTCLDY    88  77  69 NE9       29.85S HX 100
KEY WEST INTL  PTCLDY    83  76  79 NE7       29.85F HX  91

...INTERNATIONAL WEATHER...

CITY           SKY/WX    TMP DP  RH WIND       PRES   REMARKS
NASSAU BAHAMAS PTCLDY    82  75  78 N6        29.84R
CANCUN MEXICO  MOCLDY    81  79  94 N2        29.86R
COZUMEL MEXICO PTCLDY    82  77  83 CALM      29.84R HX  91

ADJACENT COASTAL WATERS...

STATION/POSITION TIME  SKY/WX   TEMP    WIND        PRES    WAVE
                                AIR SEA DIR/SP/G            HT/PER
                 (UTC)          (F)     (DEG/KT/KT) (MB)    (FT/S)
PULASKI SHOAL LI 0400            84      40/ 10/ 11 1011.1F
SAND KEY         0350            83                 1011.3F
LONG KEY         NOT AVBL
MOLASSES REEF    0300            81      30/ 14     1010.8F
FOWEY ROCKS      0300            79 85   40/ 23/ 26 1012.2R
Buoy 42097       0330               85                N/A     2/ 3

$$




USA.gov is the U.S. government's official web portal to all federal, state and local government web resources and services.